Flag for Germany Weather past 2 weeks in Gotha, Thuringia, Germany

Now
57 °F

Sprinkles. Overcast.


Feels Like: 57 °F
Forecast: 47 / 59 °F
Wind: 5 mph from West

Location: Erfurt-Bindersleben

Current Time: May 29, 2015 at 7:21:46 PM

Latest Report: May 29, 2015 at 7:00 PM


Visibility: 37 mi

Pressure: 29.78 "Hg

Humidity: 82%

Dew point: 51 °F

Location of GothaLocation

Historic Weather in Gotha — Graph

°F

Gotha temperature yesterday

Maximum temperature yesterday: 66 °F (at 3:00 PM)
Minimum temperature yesterday: 39 °F (at 2:00 AM)
Average temperature yesterday: 53 °F

Past Weeks' High & Low Weather Summary

 TemperatureHumidityPressure
High69 °F (May 18, 5:00 PM)97% (May 29, 5:00 AM)30.38 "Hg (May 29, 5:00 AM)
Low35 °F (May 22, 5:00 AM)30% (May 19, 3:00 PM)29.65 "Hg (May 19, 5:00 AM)
Average54 °F65%30.05 "Hg
* Reported May 14 6:00 PM — May 29 6:00 PM, Gotha, Weather by CustomWeather, © 2015

Note: Actual official high and low records may vary slightly from our data, if they occured in-between our weather recording intervals... More about our weather records

Advertising

Gotha weather history for previous 24 hours

 ConditionsComfort  
Time TempWeatherWind HumidityBarometerVisibility
6:00 PM
Fri, May 29
63 °FLight rain. Overcast.5 mph52%29.77 "Hg37 mi
5:00 PM65 °FOvercast.6 mph47%29.78 "Hg47 mi
4:00 PM65 °FOvercast.6 mph48%29.80 "Hg47 mi
3:00 PM63 °FOvercast.10 mph50%29.83 "Hg43 mi
2:00 PM64 °FOvercast.9 mph41%29.82 "Hg43 mi
1:00 PM63 °FOvercast.6 mph49%29.84 "Hg37 mi
12:00 PM61 °FOvercast.5 mph56%29.86 "Hg31 mi
11:00 AM59 °FOvercast.6 mph61%29.89 "Hg19 mi
10:00 AM57 °FPartly sunny.2 mph72%29.90 "Hg19 mi
9:00 AM53 °FPartly sunny.2 mph78%29.93 "Hg17 mi
8:00 AM51 °FPartly sunny.1 mph88%29.94 "Hg16 mi
7:00 AM47 °FPartly sunny.1 mph95%29.95 "Hg14 mi
6:00 AM46 °FPartly sunny.2 mph96%29.96 "Hg12 mi
5:00 AM46 °FPassing clouds.2 mph97%29.97 "Hg14 mi
4:00 AM47 °FPassing clouds.3 mph93%29.97 "Hg47 mi
3:00 AM48 °FOvercast.2 mph94%29.97 "Hg16 mi
11:00 PM
Thu, May 28
52 °FOvercast.3 mph83%29.97 "Hg19 mi
10:00 PM54 °FOvercast.5 mph85%29.93 "Hg19 mi
9:00 PM54 °FSprinkles. Overcast.5 mph87%29.92 "Hg25 mi
8:00 PM60 °FOvercast.6 mph57%29.90 "Hg31 mi
7:00 PM62 °FOvercast.6 mph51%29.90 "Hg31 mi
Weather by CustomWeather, © 2015

See weather overviewHow to use our weather pages